map of NRT home
NRT - Airport
Location
City:  Tokyo, Chiba, Japan
Near (Alt.):Narita
Name:New Tokyo International Airport
ICAO:RJAA
IATA:NRT

Details
Type:Airport (Aerodrome, Airfield)
Use:Public/Civil, International (customs port of entry)
Latitude:35°45'55"N (35.765278)
Longitude:140°23'08"E (140.385556)
Elevation:135 ft (41 m)
Variation:7.45°W (WMM2015 magnetic declination)
-0.06° annual change
Runways:2
Longest:13123 × 197 ft (4000 × 60 m), paved

Time
Time Zone:UTC+9
Local Time:

Weather
METAR:RJAA 121700Z 36003KT 7000 -SHRA FEW015 BKN040 15/15 Q1011 TEMPO 4000 -SHRA BR FEW008 BKN012 RMK 1CU015 7CU040 A2986
TAF:RJAA 121705Z 1218/1400 36004KT 8000 -SHRA FEW005 BKN012
TEMPO 1218/1221 4000 -SHRA BR
BECMG 1223/1301 02014KT

Related Locations
Nearby:
Farthest:SNPV: 11718 mi / 18858 km
Mostardas [Solidão], RS, BR

Find:

   beyond  
but within

Other Information
Maps:
NOTAMs:
Links:
Sources:

  
  • flag of Japan
  • flag of Chiba
  

Sectional Chart

Flight Planning
at skyvector.com

Satellite Image

Google Maps Satellite view

 

Copyright © 2004-2018 Karl L. Swartz. All rights reserved.
The Great Circle Mapper name and logo are trademarks of the Great Circle Mapper.
All other trademarks mentioned herein belong to their respective owners.
Please see credits for attibutions and further copyright information.

  Follow gcmap on Facebook Follow gcmap on Twitter Follow gcmap on Google+ GCmap on LinkedIn

hCard Microformat

Geo Microformat